Time,TemperatureF,DewpointF,PressureIn,WindDirection,WindDirectionDegrees,WindSpeedMPH,WindSpeedGustMPH,Humidity,HourlyPrecipIn,Conditions,Clouds,dailyrainin,SoftwareType,DateUTC
2013-03-05 00:07:00,13.1,7.0,30.45,SSE,166,0.0,0.0,77,0.00,,,0.00,weatherlink.com 1.10,2013-03-05 07:07:00,
2013-03-05 00:22:00,12.8,7.0,30.45,SSE,166,0.0,0.0,77,0.00,,,0.00,weatherlink.com 1.10,2013-03-05 07:22:00,
2013-03-05 00:37:00,12.5,7.0,30.46,SSE,166,2.0,3.0,78,0.00,,,0.00,weatherlink.com 1.10,2013-03-05 07:37:00,
2013-03-05 00:53:00,11.4,6.0,30.46,SSE,166,3.0,3.0,80,0.00,,,0.00,weatherlink.com 1.10,2013-03-05 07:53:00,
2013-03-05 01:08:00,11.9,7.0,30.46,SSE,166,2.0,4.0,81,0.00,,,0.00,weatherlink.com 1.10,2013-03-05 08:08:00,
2013-03-05 01:23:00,11.4,6.0,30.46,SSE,166,2.0,3.0,78,0.00,,,0.00,weatherlink.com 1.10,2013-03-05 08:23:00,
2013-03-05 01:38:00,10.6,5.0,30.46,SSE,166,0.0,2.0,79,0.00,,,0.00,weatherlink.com 1.10,2013-03-05 08:38:00,
2013-03-05 01:53:00,10.7,6.0,30.46,SSE,166,0.0,1.0,82,0.00,,,0.00,weatherlink.com 1.10,2013-03-05 08:53:00,
2013-03-05 02:08:00,10.1,5.0,30.46,SSE,166,2.0,3.0,81,0.00,,,0.00,weatherlink.com 1.10,2013-03-05 09:08:00,
2013-03-05 02:23:00,9.5,5.0,30.45,SSE,166,0.0,3.0,81,0.00,,,0.00,weatherlink.com 1.10,2013-03-05 09:23:00,
2013-03-05 02:38:00,9.6,5.0,30.45,SSE,166,0.0,1.0,82,0.00,,,0.00,weatherlink.com 1.10,2013-03-05 09:38:00,
2013-03-05 02:53:00,9.7,5.0,30.44,SSE,166,0.0,1.0,81,0.00,,,0.00,weatherlink.com 1.10,2013-03-05 09:53:00,
2013-03-05 03:08:00,8.8,4.0,30.44,SSE,166,2.0,3.0,81,0.00,,,0.00,weatherlink.com 1.10,2013-03-05 10:08:00,
2013-03-05 03:23:00,9.3,5.0,30.43,SSE,166,0.0,6.0,82,0.00,,,0.00,weatherlink.com 1.10,2013-03-05 10:23:00,
2013-03-05 03:38:00,9.5,5.0,30.43,SSE,166,3.0,4.0,83,0.00,,,0.00,weatherlink.com 1.10,2013-03-05 10:38:00,
2013-03-05 03:53:00,10.2,6.0,30.43,SSE,166,4.0,4.0,83,0.00,,,0.00,weatherlink.com 1.10,2013-03-05 10:53:00,
2013-03-05 04:08:00,10.7,6.0,30.43,SSE,166,2.0,4.0,82,0.00,,,0.00,weatherlink.com 1.10,2013-03-05 11:08:00,
2013-03-05 04:23:00,10.1,5.0,30.42,SSE,166,1.0,3.0,81,0.00,,,0.00,weatherlink.com 1.10,2013-03-05 11:23:00,
2013-03-05 04:38:00,10.3,6.0,30.42,SSE,166,1.0,3.0,81,0.00,,,0.00,weatherlink.com 1.10,2013-03-05 11:38:00,
2013-03-05 04:53:00,10.3,6.0,30.42,SSE,166,1.0,4.0,81,0.00,,,0.00,weatherlink.com 1.10,2013-03-05 11:53:00,
2013-03-05 05:08:00,10.4,6.0,30.42,SSE,166,1.0,2.0,81,0.00,,,0.00,weatherlink.com 1.10,2013-03-05 12:08:00,
2013-03-05 05:23:00,10.7,6.0,30.42,SSE,166,1.0,3.0,81,0.00,,,0.00,weatherlink.com 1.10,2013-03-05 12:23:00,
2013-03-05 05:38:00,9.6,5.0,30.42,SSE,166,0.0,0.0,80,0.00,,,0.00,weatherlink.com 1.10,2013-03-05 12:38:00,
2013-03-05 05:53:00,9.7,6.0,30.42,SSE,166,0.0,2.0,83,0.00,,,0.00,weatherlink.com 1.10,2013-03-05 12:53:00,
2013-03-05 06:08:00,10.1,6.0,30.43,SSE,166,3.0,4.0,83,0.00,,,0.00,weatherlink.com 1.10,2013-03-05 13:08:00,
2013-03-05 06:23:00,10.6,6.0,30.43,SSE,166,5.0,7.0,82,0.00,,,0.00,weatherlink.com 1.10,2013-03-05 13:23:00,
2013-03-05 06:38:00,13.0,8.0,30.43,NNE,17,4.0,12.0,80,0.00,,,0.00,weatherlink.com 1.10,2013-03-05 13:38:00,
2013-03-05 06:53:00,12.6,7.0,30.43,NNE,17,4.0,6.0,79,0.00,,,0.00,weatherlink.com 1.10,2013-03-05 13:53:00,
2013-03-05 07:08:00,14.0,9.0,30.43,NNE,17,6.0,7.0,79,0.00,,,0.00,weatherlink.com 1.10,2013-03-05 14:08:00,
2013-03-05 07:23:00,14.3,8.0,30.43,NNE,17,3.0,8.0,76,0.00,,,0.00,weatherlink.com 1.10,2013-03-05 14:23:00,
2013-03-05 07:38:00,13.7,7.0,30.43,NNE,17,0.0,1.0,76,0.00,,,0.00,weatherlink.com 1.10,2013-03-05 14:38:00,
2013-03-05 07:54:00,15.6,9.0,30.42,NNE,17,3.0,5.0,75,0.00,,,0.00,weatherlink.com 1.10,2013-03-05 14:54:00,
2013-03-05 08:09:00,16.6,9.0,30.43,NNE,17,2.0,4.0,73,0.00,,,0.00,weatherlink.com 1.10,2013-03-05 15:09:00,
2013-03-05 08:24:00,17.6,10.0,30.42,NNE,17,3.0,5.0,73,0.00,,,0.00,weatherlink.com 1.10,2013-03-05 15:24:00,
2013-03-05 08:39:00,19.0,11.0,30.42,NNE,17,5.0,10.0,72,0.00,,,0.00,weatherlink.com 1.10,2013-03-05 15:39:00,
2013-03-05 08:54:00,20.5,11.0,30.42,NNE,26,5.0,11.0,67,0.00,,,0.00,weatherlink.com 1.10,2013-03-05 15:54:00,
2013-03-05 09:09:00,21.5,11.0,30.41,NNE,19,9.0,12.0,64,0.00,,,0.00,weatherlink.com 1.10,2013-03-05 16:09:00,
2013-03-05 09:24:00,23.0,12.0,30.41,NNE,29,9.0,13.0,62,0.00,,,0.00,weatherlink.com 1.10,2013-03-05 16:24:00,
2013-03-05 09:39:00,24.2,12.0,30.41,NNE,28,7.0,10.0,59,0.00,,,0.00,weatherlink.com 1.10,2013-03-05 16:39:00,
2013-03-05 09:54:00,25.2,11.0,30.40,NNE,27,4.0,8.0,55,0.00,,,0.00,weatherlink.com 1.10,2013-03-05 16:54:00,
2013-03-05 10:09:00,26.6,11.0,30.39,NNE,27,4.0,7.0,52,0.00,,,0.00,weatherlink.com 1.10,2013-03-05 17:09:00,
2013-03-05 10:24:00,27.8,12.0,30.39,NNE,27,4.0,9.0,52,0.00,,,0.00,weatherlink.com 1.10,2013-03-05 17:24:00,
2013-03-05 10:39:00,29.4,13.0,30.38,NNE,22,6.0,10.0,50,0.00,,,0.00,weatherlink.com 1.10,2013-03-05 17:39:00,
2013-03-05 10:54:00,30.9,13.0,30.37,ENE,66,3.0,8.0,47,0.00,,,0.00,weatherlink.com 1.10,2013-03-05 17:54:00,
2013-03-05 11:09:00,33.0,10.0,30.36,ENE,69,0.0,5.0,38,0.00,,,0.00,weatherlink.com 1.10,2013-03-05 18:09:00,
2013-03-05 11:24:00,33.5,10.0,30.35,ENE,69,3.0,5.0,37,0.00,,,0.00,weatherlink.com 1.10,2013-03-05 18:24:00,
2013-03-05 11:39:00,34.4,9.0,30.35,ENE,69,1.0,4.0,34,0.00,,,0.00,weatherlink.com 1.10,2013-03-05 18:39:00,
2013-03-05 11:54:00,35.3,9.0,30.34,ENE,69,3.0,4.0,34,0.00,,,0.00,weatherlink.com 1.10,2013-03-05 18:54:00,
2013-03-05 12:09:00,36.3,10.0,30.34,NNE,28,7.0,8.0,33,0.00,,,0.00,weatherlink.com 1.10,2013-03-05 19:09:00,
2013-03-05 12:25:00,36.7,9.0,30.33,West,261,9.0,12.0,32,0.00,,,0.00,weatherlink.com 1.10,2013-03-05 19:25:00,
2013-03-05 12:40:00,37.2,10.0,30.32,WNW,286,6.0,12.0,32,0.00,,,0.00,weatherlink.com 1.10,2013-03-05 19:40:00,
2013-03-05 12:55:00,38.4,9.0,30.32,WNW,289,2.0,7.0,30,0.00,,,0.00,weatherlink.com 1.10,2013-03-05 19:55:00,
2013-03-05 13:10:00,38.8,9.0,30.30,WNW,289,3.0,5.0,29,0.00,,,0.00,weatherlink.com 1.10,2013-03-05 20:10:00,
2013-03-05 13:25:00,40.0,10.0,30.29,West,273,1.0,7.0,29,0.00,,,0.00,weatherlink.com 1.10,2013-03-05 20:25:00,
2013-03-05 13:40:00,40.5,10.0,30.28,West,273,0.0,7.0,28,0.00,,,0.00,weatherlink.com 1.10,2013-03-05 20:40:00,
2013-03-05 13:55:00,40.6,10.0,30.27,NW,315,3.0,8.0,28,0.00,,,0.00,weatherlink.com 1.10,2013-03-05 20:55:00,
2013-03-05 14:10:00,40.7,9.0,30.27,NNE,17,5.0,9.0,27,0.00,,,0.00,weatherlink.com 1.10,2013-03-05 21:10:00,
2013-03-05 14:25:00,40.9,9.0,30.26,NNW,338,6.0,10.0,27,0.00,,,0.00,weatherlink.com 1.10,2013-03-05 21:25:00,
2013-03-05 14:40:00,41.3,9.0,30.25,NW,322,5.0,10.0,27,0.00,,,0.00,weatherlink.com 1.10,2013-03-05 21:40:00,
2013-03-05 14:55:00,41.7,9.0,30.25,NW,322,5.0,9.0,26,0.00,,,0.00,weatherlink.com 1.10,2013-03-05 21:55:00,
2013-03-05 15:10:00,41.9,8.0,30.24,NW,322,5.0,8.0,25,0.00,,,0.00,weatherlink.com 1.10,2013-03-05 22:10:00,
2013-03-05 15:25:00,41.6,9.0,30.24,NW,322,2.0,9.0,26,0.00,,,0.00,weatherlink.com 1.10,2013-03-05 22:25:00,
2013-03-05 15:40:00,41.9,8.0,30.23,NW,321,3.0,9.0,25,0.00,,,0.00,weatherlink.com 1.10,2013-03-05 22:40:00,
2013-03-05 15:55:00,42.7,9.0,30.23,NW,321,3.0,7.0,25,0.00,,,0.00,weatherlink.com 1.10,2013-03-05 22:55:00,
2013-03-05 16:10:00,42.8,8.0,30.22,SSE,147,6.0,12.0,24,0.00,,,0.00,weatherlink.com 1.10,2013-03-05 23:10:00,
2013-03-05 16:25:00,42.3,8.0,30.21,SE,146,11.0,13.0,24,0.00,,,0.00,weatherlink.com 1.10,2013-03-05 23:25:00,
2013-03-05 16:40:00,42.1,8.0,30.21,SE,144,13.0,14.0,24,0.00,,,0.00,weatherlink.com 1.10,2013-03-05 23:40:00,
2013-03-05 16:55:00,42.0,7.0,30.20,SSE,150,6.0,13.0,24,0.00,,,0.00,weatherlink.com 1.10,2013-03-05 23:55:00,
2013-03-05 17:10:00,41.4,7.0,30.20,South,170,10.0,12.0,24,0.00,,,0.00,weatherlink.com 1.10,2013-03-06 00:10:00,
2013-03-05 17:25:00,40.6,6.0,30.19,SSE,153,5.0,11.0,24,0.00,,,0.00,weatherlink.com 1.10,2013-03-06 00:25:00,
2013-03-05 17:40:00,39.9,7.0,30.20,SSE,159,5.0,8.0,25,0.00,,,0.00,weatherlink.com 1.10,2013-03-06 00:40:00,
2013-03-05 17:55:00,38.9,7.0,30.19,South,186,7.0,13.0,26,0.00,,,0.00,weatherlink.com 1.10,2013-03-06 00:55:00,
2013-03-05 18:10:00,38.4,6.0,30.20,South,176,3.0,9.0,26,0.00,,,0.00,weatherlink.com 1.10,2013-03-06 01:10:00,
2013-03-05 18:25:00,36.5,6.0,30.20,South,175,4.0,7.0,28,0.00,,,0.00,weatherlink.com 1.10,2013-03-06 01:25:00,
2013-03-05 18:40:00,34.7,7.0,30.20,South,175,0.0,5.0,31,0.00,,,0.00,weatherlink.com 1.10,2013-03-06 01:40:00,
2013-03-05 18:55:00,33.4,8.0,30.20,South,175,5.0,5.0,34,0.00,,,0.00,weatherlink.com 1.10,2013-03-06 01:55:00,
2013-03-05 19:10:00,31.5,7.0,30.20,South,175,0.0,5.0,36,0.00,,,0.00,weatherlink.com 1.10,2013-03-06 02:10:00,
2013-03-05 19:25:00,32.0,8.0,30.20,South,175,2.0,6.0,37,0.00,,,0.00,weatherlink.com 1.10,2013-03-06 02:25:00,
2013-03-05 19:40:00,31.8,9.0,30.21,South,176,0.0,5.0,38,0.00,,,0.00,weatherlink.com 1.10,2013-03-06 02:40:00,
2013-03-05 19:55:00,31.1,9.0,30.21,SSE,167,3.0,5.0,39,0.00,,,0.00,weatherlink.com 1.10,2013-03-06 02:55:00,
2013-03-05 20:10:00,29.9,9.0,30.21,SSE,167,3.0,6.0,42,0.00,,,0.00,weatherlink.com 1.10,2013-03-06 03:10:00,
2013-03-05 20:25:00,28.9,9.0,30.21,SSE,153,4.0,7.0,44,0.00,,,0.00,weatherlink.com 1.10,2013-03-06 03:25:00,
2013-03-05 20:40:00,28.6,9.0,30.21,ESE,110,5.0,8.0,44,0.00,,,0.00,weatherlink.com 1.10,2013-03-06 03:40:00,
2013-03-05 20:55:00,27.6,10.0,30.20,ESE,104,4.0,9.0,48,0.00,,,0.00,weatherlink.com 1.10,2013-03-06 03:55:00,
2013-03-05 21:10:00,27.3,11.0,30.20,ESE,104,5.0,8.0,50,0.00,,,0.00,weatherlink.com 1.10,2013-03-06 04:10:00,
2013-03-05 21:25:00,27.5,11.0,30.20,ESE,103,3.0,8.0,51,0.00,,,0.00,weatherlink.com 1.10,2013-03-06 04:25:00,
2013-03-05 21:40:00,27.3,12.0,30.20,ESE,103,2.0,6.0,52,0.00,,,0.00,weatherlink.com 1.10,2013-03-06 04:40:00,
2013-03-05 21:55:00,26.0,10.0,30.20,ESE,103,4.0,6.0,51,0.00,,,0.00,weatherlink.com 1.10,2013-03-06 04:55:00,
2013-03-05 22:10:00,24.2,10.0,30.19,ESE,103,2.0,2.0,54,0.00,,,0.00,weatherlink.com 1.10,2013-03-06 05:10:00,
2013-03-05 22:25:00,23.1,9.0,30.19,ESE,103,0.0,2.0,54,0.00,,,0.00,weatherlink.com 1.10,2013-03-06 05:25:00,
2013-03-05 22:40:00,21.8,9.0,30.19,ESE,103,1.0,3.0,57,0.00,,,0.00,weatherlink.com 1.10,2013-03-06 05:40:00,
2013-03-05 22:55:00,20.7,9.0,30.19,ESE,103,0.0,0.0,60,0.00,,,0.00,weatherlink.com 1.10,2013-03-06 05:55:00,
2013-03-05 23:10:00,20.3,9.0,30.19,ESE,103,3.0,5.0,61,0.00,,,0.00,weatherlink.com 1.10,2013-03-06 06:10:00,
2013-03-05 23:25:00,20.1,9.0,30.18,ESE,103,1.0,5.0,61,0.00,,,0.00,weatherlink.com 1.10,2013-03-06 06:25:00,
2013-03-05 23:40:00,18.9,8.0,30.19,ESE,103,3.0,4.0,62,0.00,,,0.00,weatherlink.com 1.10,2013-03-06 06:40:00,
2013-03-05 23:55:00,18.4,7.0,30.18,ESE,103,4.0,6.0,61,0.00,,,0.00,weatherlink.com 1.10,2013-03-06 06:55:00,